Weather History for Jackson, KY

Change the Weather History Date:

Thursday, October 17, 2013

  Actual Average Record
Temperature  
Mean Temperature 55 °F 58 °F  
Max Temperature 62 °F 68 °F 81 °F (1998)
Min Temperature 47 °F 48 °F 33 °F (1991)
Degree Days  
Heating Degree Days 10 8  
Month to date heating degree days 35 108  
Since 1 July heating degree days 65 160  
Cooling Degree Days 0 1  
Month to date cooling degree days 42 23  
Year to date cooling degree days 1068 1144  
Growing Degree Days 4 (Base 50)    
Moisture  
Dew Point 55 °F    
Average Humidity 92    
Maximum Humidity 100    
Minimum Humidity 83    
Precipitation  
Precipitation 0.32 in 0.10 in 2.19 in (1989)
Month to date precipitation 1.19 1.70  
Year to date precipitation 45.68 38.71  
Snow  
Snow 0.00 in 0.00 in - ()
Month to date snowfall 0.0 0.0  
Since 1 July snowfall 0.0 0.0  
Since 1 September snowfall 0.0 0.0  
Snow Depth 0.00 in    
Sea Level Pressure  
Sea Level Pressure 29.92 in    
Wind  
Wind Speed 2 mph (WNW)    
Max Wind Speed 15 mph    
Max Gust Speed 22 mph    
Visibility 3 miles    
Events Fog , Rain    
T = Trace of Precipitation, MM = Missing Value Source: NWS Daily Summary

Daily Weather History Graph

Daily Weather History Graph

Search for Another Location

Airport:

Trip Planner

Search our weather history database for the weather conditions in past years. The results will help you decide how hot, cold, wet, or windy it might be!

Date:

Astronomy

Oct. 17, 2013 Rise Set
Actual Time 7:43 AM EDT 6:52 PM EDT
Civil Twilight 7:17 AM EDT 7:19 PM EDT
Nautical Twilight 6:46 AM EDT 7:49 PM EDT
Astronomical Twilight 6:16 AM EDT 8:19 PM EDT
Moon 6:05 PM EDT (10/17) 6:15 AM EDT (10/17)
Length of Visible Light 12h 02m
Length of Day
11h 09m
Waxing Gibbous, 98% of the Moon is Illuminated
Oct 17
Waxing Gibbous
Oct 18
Full
Oct 26
Last Quarter
Nov 3
New
Nov 10
First Quarter

Hourly Weather History & Observations

Time (EDT) Temp. Dew Point Humidity Pressure Visibility Wind Dir Wind Speed Gust Speed Precip Events Conditions
12:28 AM 60.8 °F 60.8 °F 100% 29.96 in 0.5 mi Calm Calm - N/A Fog Fog
12:53 AM 61.0 °F 60.1 °F 97% 29.94 in 0.2 mi Calm Calm - 0.00 in Fog , Rain Light Rain
1:53 AM 61.0 °F 60.1 °F 97% 29.93 in 0.5 mi Calm Calm - 0.02 in Fog , Rain Light Rain
2:53 AM 61.0 °F 60.1 °F 97% 29.92 in 0.2 mi Calm Calm - 0.02 in Fog , Rain Light Rain
3:53 AM 61.0 °F 60.1 °F 97% 29.90 in 0.8 mi Calm Calm - 0.02 in Rain Light Rain
4:09 AM 60.8 °F 60.8 °F 100% 29.91 in 1.2 mi Calm Calm - 0.01 in Rain Light Rain
4:17 AM 60.8 °F 59.0 °F 94% 29.91 in 2.0 mi Calm Calm - 0.01 in   Overcast
4:25 AM 60.8 °F 60.8 °F 100% 29.91 in 4.0 mi Calm Calm - 0.01 in   Overcast
4:31 AM 60.8 °F 60.8 °F 100% 29.91 in 1.5 mi Calm Calm - 0.01 in   Overcast
4:40 AM 60.8 °F 60.8 °F 100% 29.91 in 0.5 mi Calm Calm - 0.01 in Fog Fog
4:53 AM 61.0 °F 60.1 °F 97% 29.88 in 0.8 mi Calm Calm - 0.01 in Rain Light Rain
5:03 AM 60.8 °F 60.8 °F 100% 29.90 in 1.2 mi Calm Calm - 0.00 in Rain Light Rain
5:15 AM 60.8 °F 60.8 °F 100% 29.90 in 0.5 mi Calm Calm - 0.00 in Fog Fog
5:19 AM 60.8 °F 60.8 °F 100% 29.90 in 1.0 mi Calm Calm - 0.00 in   Overcast
5:22 AM 60.8 °F 60.8 °F 100% 29.90 in 1.8 mi Calm Calm - 0.00 in   Overcast
5:28 AM 60.8 °F 60.8 °F 100% 29.90 in 0.8 mi Calm Calm - 0.00 in   Overcast
5:39 AM 60.8 °F 60.8 °F 100% 29.90 in 1.0 mi Calm Calm - 0.00 in   Overcast
5:41 AM 60.8 °F 60.8 °F 100% 29.90 in 0.8 mi Calm Calm - 0.00 in   Overcast
5:53 AM 61.0 °F 60.1 °F 97% 29.88 in 0.5 mi Calm Calm - 0.00 in Fog , Rain Light Rain
6:40 AM 60.8 °F 60.8 °F 100% 29.90 in 0.8 mi Calm Calm - 0.02 in Rain Light Rain
6:53 AM 61.0 °F 60.1 °F 97% 29.87 in 0.8 mi Calm Calm - 0.03 in Rain Light Rain
7:06 AM 60.8 °F 60.8 °F 100% 29.89 in 1.5 mi Calm Calm - 0.02 in Rain Light Rain
7:16 AM 60.8 °F 60.8 °F 100% 29.89 in 1.8 mi Calm Calm - 0.02 in Rain Light Rain
7:25 AM 60.8 °F 60.8 °F 100% 29.89 in 0.8 mi Calm Calm - 0.03 in Rain Light Rain
7:53 AM 60.1 °F 59.0 °F 96% 29.87 in 0.2 mi Calm Calm - 0.04 in Fog , Rain Light Rain
8:53 AM 60.1 °F 57.9 °F 93% 29.87 in 0.2 mi Calm Calm - 0.01 in Fog Fog
9:53 AM 61.0 °F 60.1 °F 97% 29.86 in 0.2 mi Calm Calm - 0.01 in Fog Fog
10:53 AM 61.0 °F 60.1 °F 97% 29.85 in 0.2 mi Calm Calm - 0.01 in Fog , Rain Light Rain
11:38 AM 59.0 °F 57.2 °F 94% 29.87 in 1.0 mi West 5.8 mph - 0.01 in Rain Light Rain
11:48 AM 59.0 °F 57.2 °F 94% 29.87 in 2.0 mi Variable 3.5 mph - 0.01 in Rain Light Rain
11:53 AM 59.0 °F 57.9 °F 96% 29.85 in 1.8 mi WNW 3.5 mph - 0.01 in Rain Light Rain
12:09 PM 57.2 °F 57.2 °F 100% 29.87 in 1.2 mi West 6.9 mph - 0.01 in Rain Light Rain
12:14 PM 57.2 °F 57.2 °F 100% 29.87 in 2.5 mi West 6.9 mph - 0.01 in Rain Light Rain
12:51 PM 55.4 °F 53.6 °F 94% 29.89 in 1.8 mi WNW 10.4 mph 20.7 mph 0.04 in Rain Light Rain
12:53 PM 55.9 °F 54.0 °F 93% 29.87 in 1.5 mi WNW 10.4 mph 19.6 mph 0.04 in Rain Light Rain
1:05 PM 53.6 °F 53.6 °F 100% 29.89 in 2.0 mi WNW 11.5 mph 20.7 mph 0.03 in Rain Light Rain
1:18 PM 53.6 °F 51.8 °F 94% 29.90 in 1.5 mi WNW 9.2 mph 20.7 mph 0.06 in Rain Heavy Rain
1:25 PM 53.6 °F 51.8 °F 94% 29.90 in 2.0 mi WNW 8.1 mph 20.7 mph 0.07 in Rain Light Rain
1:42 PM 51.8 °F 50.0 °F 94% 29.91 in 6.0 mi WNW 8.1 mph 20.7 mph 0.09 in Rain Light Rain
1:53 PM 51.1 °F 48.9 °F 92% 29.90 in 4.0 mi WNW 11.5 mph 21.9 mph 0.09 in Rain Light Rain
1:58 PM 51.8 °F 48.2 °F 88% 29.92 in 2.5 mi NW 12.7 mph 20.7 mph 0.01 in Rain Light Rain
2:05 PM 51.8 °F 48.2 °F 88% 29.91 in 3.0 mi WNW 10.4 mph 20.7 mph 0.01 in Rain Light Rain
2:38 PM 53.6 °F 50.0 °F 88% 29.91 in 6.0 mi Calm Calm - 0.01 in Rain Light Rain
2:49 PM 53.6 °F 51.8 °F 94% 29.91 in 9.0 mi Variable 3.5 mph - 0.01 in   Overcast
2:53 PM 53.1 °F 51.1 °F 93% 29.90 in 10.0 mi Variable 3.5 mph - 0.01 in   Overcast
3:43 PM 53.6 °F 51.8 °F 94% 29.92 in 10.0 mi Calm Calm - 0.00 in   Overcast
3:53 PM 53.1 °F 51.1 °F 93% 29.91 in 10.0 mi Calm Calm - 0.00 in   Overcast
4:08 PM 53.6 °F 50.0 °F 88% 29.92 in 10.0 mi Variable 3.5 mph - N/A   Overcast
4:53 PM 54.0 °F 50.0 °F 86% 29.91 in 10.0 mi Variable 5.8 mph - N/A   Overcast
5:16 PM 53.6 °F 50.0 °F 88% 29.94 in 10.0 mi West 4.6 mph - N/A   Overcast
5:29 PM 53.6 °F 48.2 °F 82% 29.94 in 10.0 mi Variable 4.6 mph - N/A   Overcast
5:53 PM 53.1 °F 48.9 °F 86% 29.94 in 10.0 mi Variable 4.6 mph - N/A   Overcast
6:08 PM 53.6 °F 48.2 °F 82% 29.95 in 10.0 mi Calm Calm - N/A   Overcast
6:53 PM 52.0 °F 48.9 °F 89% 29.96 in 10.0 mi Variable 4.6 mph - N/A   Overcast
7:53 PM 52.0 °F 48.9 °F 89% 29.98 in 10.0 mi Calm Calm - N/A   Overcast
8:53 PM 52.0 °F 48.9 °F 89% 29.99 in 10.0 mi Variable 3.5 mph - N/A   Overcast
9:53 PM 50.0 °F 48.0 °F 93% 30.00 in 10.0 mi Calm Calm - N/A   Mostly Cloudy
10:53 PM 50.0 °F 46.9 °F 89% 30.01 in 10.0 mi Calm Calm - N/A   Clear
11:18 PM 48.2 °F 46.4 °F 93% 30.02 in 2.5 mi Calm Calm - N/A   Partly Cloudy
11:23 PM 48.2 °F 46.4 °F 93% 30.02 in 1.0 mi Calm Calm - N/A   Mist
11:29 PM 48.2 °F 46.4 °F 93% 30.02 in 1.8 mi Calm Calm - N/A   Partly Cloudy
11:32 PM 48.2 °F 46.4 °F 93% 30.02 in 3.0 mi Calm Calm - N/A   Partly Cloudy
11:42 PM 48.2 °F 46.4 °F 93% 30.02 in 1.8 mi Calm Calm - N/A   Partly Cloudy
11:44 PM 48.2 °F 46.4 °F 93% 30.02 in 1.0 mi Calm Calm - N/A   Mist
11:51 PM 48.2 °F 46.4 °F 93% 30.02 in 0.2 mi Calm Calm - N/A Fog Fog
11:53 PM 48.0 °F 46.0 °F 93% 30.01 in 0.2 mi Calm Calm - N/A Fog Fog